This is the latest recevied weather packets stored in our database for station/object EA6AMI-5. If no packets are shown the sender has not sent any weather packets the latest 10 day(s).
| Time | Temp. | Humidity | Pressure | Rain* | Wind** | Luminosity | Snow |
|---|---|---|---|---|---|---|---|
| 1778139904 | 17.22° C | 77% | 1013.1 hPa | 0 mm | - | 400 W/m² | - |
| 1778139363 | 17.22° C | 78% | 1013 hPa | 0 mm | - | 335 W/m² | - |
| 1778138824 | 17.22° C | 79% | 1013.2 hPa | 0 mm | - | 205 W/m² | - |
| 1778138283 | 17.22° C | 80% | 1013.1 hPa | 0 mm | - | 74 W/m² | - |
| 1778137744 | 17.22° C | 79% | 1013.1 hPa | 0 mm | - | 209 W/m² | - |
| 1778137204 | 16.67° C | 80% | 1012.9 hPa | 0 mm | - | 164 W/m² | - |
| 1778136844 | 16.67° C | 81% | 1013.1 hPa | 0 mm | - | 156 W/m² | - |
| 1778136303 | 16.67° C | 82% | 1012.9 hPa | 0 mm | - | 70 W/m² | - |
| 1778135764 | 16.67° C | 81% | 1013 hPa | 0 mm | - | 75 W/m² | - |
| 1778135224 | 16.11° C | 82% | 1012.9 hPa | 0 mm | - | 92 W/m² | - |
| 1778134683 | 15.56° C | 85% | 1013 hPa | 0 mm | - | 74 W/m² | - |
| 1778134144 | 15° C | 86% | 1012.8 hPa | 0 mm | - | 53 W/m² | - |
| 1778133604 | 15° C | 87% | 1013 hPa | 0 mm | - | 62 W/m² | - |
| 1778133244 | 14.44° C | 88% | 1012.9 hPa | 0 mm | - | 52 W/m² | - |
| 1778132704 | 13.33° C | 89% | 1012.9 hPa | 0 mm | - | 63 W/m² | - |
| 1778132164 | 13.33° C | 89% | 1012.8 hPa | 0 mm | - | 32 W/m² | - |
| 1778131623 | 12.78° C | 91% | 1012.8 hPa | 0 mm | - | 31 W/m² | - |
| 1778131083 | 12.78° C | 91% | 1012.9 hPa | 0 mm | - | 21 W/m² | - |
| 1778130544 | 12.22° C | 92% | 1012.7 hPa | 0 mm | - | 16 W/m² | - |
| 1778130004 | 12.22° C | 92% | 1012.5 hPa | 0 mm | - | 11 W/m² | - |
| 1778129643 | 12.22° C | 92% | 1012.5 hPa | 0 mm | - | 8 W/m² | - |
| 1778129104 | 11.67° C | 92% | 1012.4 hPa | 0 mm | - | 3 W/m² | - |
| 1778128564 | 11.67° C | 91% | 1012.4 hPa | 0 mm | - | 1 W/m² | - |
| 1778128023 | 12.22° C | 92% | 1012.4 hPa | 0 mm | - | 0 W/m² | - |
| 1778127484 | 12.22° C | 92% | 1012.2 hPa | 0 mm | - | 0 W/m² | - |
* Rain latest hour (hover to see other rain measurements)
** Current wind speed in m/s (hover to see current wind gust speed)